Orbital Elements at Epoch 2459200.5 (2020-Dec-17.0) TDB
Reference: JPL 29 (heliocentric ecliptic J2000)
Element | Value | Uncertainty (1-sigma) | Units |
e | .08152646907206045 | 5.2969e-08 | |
a | 2.653967009395367 | 1.2944e-08 | au |
q | 2.437598450085627 | 1.4527e-07 | au |
i | 21.56731710082458 | 5.5023e-06 | deg |
node | 216.4661798669797 | 8.8691e-06 | deg |
peri | 195.7569516707721 | 2.4627e-05 | deg |
M | 349.126572964425 | 2.1843e-05 | deg |
tp | 2459248.198602017875 (2021-Feb-02.69860202) | 9.5778e-05 | TDB |
period | 1579.216623264622 4.32 | 1.1553e-05 3.163e-08 | d yr |
n | .2279611262296575 | 1.6677e-09 | deg/d |
Q | 2.870335568705107 | 1.3999e-08 | au |
|
| | Orbit Determination Parameters
Additional Information
|